Regional Weather Roundup
Issued by NWS Portland, ME

Home | Current Version | Previous Version | Text Only | Print | Product List | Glossary On
Versions: 1 2 3 4 5 6 7 8 9 10 11 12 13 14 15 16 17 18 19 20 21 22 23 24 25 26 27 28 29 30 31 32 33 34 35 36 37 38 39 40 41 42 43 44 45 46 47 48 49 50
000
ASUS41 KGYX 202005
RWRGYX
WEATHER ROUNDUP FOR MAINE AND NEW HAMPSHIRE
NATIONAL WEATHER SERVICE GRAY ME
400 PM EDT WED AUG 20 2014

MEZ002-005-006-010-012-015-018-020-021-024-026-027-029-202100-
MAINE

CITY           SKY/WX    TMP DP  RH WIND       PRES   REMARKS
PORTLAND       PTSUNNY   75  55  49 S8        30.02F
SANFORD        MOSUNNY   75  54  46 SE5       30.03F
BAR HARBOR     SUNNY     77  61  57 SW12      30.00R
WISCASSET      SUNNY     76  58  53 S6        30.03S
ROCKLAND       SUNNY     73  59  60 S6        30.01S
FRYEBURG       PTSUNNY   79  55  43 E6        30.02F
LEWISTONAUBURN MOSUNNY   75  57  53 S9        30.03R
AUGUSTA        CLOUDY    79  55  43 CALM      30.02S
WATERVILLE     MOSUNNY   79  57  47 SW5       29.97S
BANGOR         PTSUNNY   80  55  42 W6        30.00F
GREENVILLE       N/A     77  54  44 N3        30.03S
MILLINOCKET    MOSUNNY   80  56  43 W5        30.01S
HOULTON        MOSUNNY   80  55  42 NW5       29.98S
PRESQUE ISLE   MOSUNNY   79  54  41 NW8       30.00S
FRENCHVILLE    MOSUNNY   76  55  48 NW10      30.02R
CARIBOU        PTSUNNY   77  57  50 N7        30.00R
$$

NHZ002-005-008-009-011-012-014-202100-
NEW HAMPSHIRE

CITY           SKY/WX    TMP DP  RH WIND       PRES   REMARKS
PORTSMOUTH     MOSUNNY   74  58  56 SE8       30.02S
ROCHESTER      MOSUNNY   77  58  51 S6        30.02R
NASHUA         MOSUNNY   81  54  39 NE9       30.00F
MANCHESTER     PTSUNNY   81  55  40 SE7       29.98F
CONCORD        MOSUNNY   79  55  43 CALM      30.00S
LACONIA        MOSUNNY   77  54  44 NE5       30.00S
PLYMOUTH       FAIR      78  62  56 CALM      30.00S
BERLIN         PTSUNNY   77  55  46 E7        30.02F
WHITEFIELD     PTSUNNY   78  58  49 W3        30.02S
JAFFREY        CLOUDY    77  57  50 VRB3      30.03S
LEBANON        MOSUNNY   83  58  42 N5        29.98F
MT WASHINGTON  PTSUNNY   54  50  87 W7          N/A
$$

VTZ005-007-008-202100-
VERMONT

CITY           SKY/WX    TMP DP  RH WIND       PRES   REMARKS
ST JOHNSBURY     N/A     76  54  46 MISG      29.99S
MONTPELIER     PTSUNNY   78  57  48 S6        30.05F
BURLINGTON     PTSUNNY   83  61  47 S7        29.96F
$$

MAZ007-012-024-CTZ003-RIZ002-NYZ038-NYZ072-202100-
SOUTHERN NEW ENGLAND AND NY

CITY           SKY/WX    TMP DP  RH WIND       PRES   REMARKS
BOSTON         MOSUNNY   72  53  51 E14       30.02S
WORCESTER      SUNNY     78  54  43 VRB6      30.02S
NANTUCKET      SUNNY     72  57  59 NE13      30.01S
PROVIDENCE     MOSUNNY   78  62  57 SE12      30.00R
HARTFORD       MOSUNNY   83  58  42 VRB7      29.96F
ALBANY         PTSUNNY   82  65  56 E7        29.94F
NEW YORK CITY  MOSUNNY   81  55  40 SE13      29.97S
$$

ANZ081-ANZ082-ANZ150-NHZ014-MEZ023>029-202100-
COASTAL MARINE OBSERVATIONS

STATION/POSITION TIME  TEMP    WIND        PRES    WAVE
                       AIR SEA DIR/SP/G            HT/PER
                 (UTC) (F)     (DEG/KT/KT) (MB)    (FT/S)
MATINICUS ROCK   1900          220/ 11/ 11 1016.3F
PORTLAND WX BUOY 1950   66 65  190/  6/  8 1016.9F   1/ 7
WELLS            1900   69 63  160/  8/  9 1016.2F
ISLE OF SHOALS   1900   66     140/  6/  6 1016.5F
JEFFREYS LEDGE   1921      68                N/A     1/ 7
CASHES LEDGE BUO 1950   67 69              1016.6F   1/ 6
$$

.............KEY..............
   WCI - WIND CHILL
   TC  - TEMPERATURE IN CELSIUS
   VSB - VISIBILITY IN MILES
   HX  - HEAT INDEX
   FAIR- INDICATES FEW OR NO CLOUDS BELOW 12,000 FT, WITH NO
         SIGNIFICANT WEATHER AND/OR OBSTRUCTIONS TO VISIBILITY.





USA.gov is the U.S. government's official web portal to all federal, state and local government web resources and services.